Regional Weather Roundup
Issued by NWS

Home | Current Version | Previous Version | Text Only | Print | Product List | Glossary On
Versions: 1 2 3 4 5 6 7 8 9 10 11 12 13 14 15 16 17 18 19 20 21 22 23 24 25 26 27 28 29 30 31 32 33 34 35 36 37 38 39 40 41 42 43 44 45 46 47 48 49 50
000
ASUS46 KSEW 040110
RWRWA

WASHINGTON REGIONAL WEATHER ROUNDUP
NATIONAL WEATHER SERVICE SEATTLE WA
600 PM PDT MON AUG 03 2015

NOTE:"FAIR" INDICATES FEW OR NO CLOUDS BELOW 12,000 FEET WITH NO
SIGNIFICANT WEATHER AND/OR OBSTRUCTIONS TO VISIBILITY.

WAZ505-507>509-040200-
SEATTLE, TACOMA, EVERETT, AND VICINITY

CITY           SKY/WX    TMP DP  RH WIND       PRES   REMARKS
EVERETT        SUNNY     69  55  60 N12       29.92S
BOEING FIELD   PTSUNNY   84  55  36 S5        29.87F
RENTON         MOSUNNY   82  55  39 VRB6      29.87S
SEATAC AIRPORT PTSUNNY   82  55  39 SW5       29.90S
JBLM-MCCHORD   MOSUNNY   83  57  41 W12       29.88S
PUYALLUP       FAIR      84  48  28 CALM      29.90S
BREMERTON      MOSUNNY   81  57  44 NE8       29.91S
JBLM-FT LEWIS  MOSUNNY   83  56  40 W10       29.88S
TACOMA NARROWS MOSUNNY   80  56  43 W9        29.89S
$$

WAZ001-503-506-510-514-515-040200-
NORTH INTERIOR

CITY           SKY/WX    TMP DP  RH WIND       PRES   REMARKS
BELLINGHAM     SUNNY     71  55  56 S13G22    29.88S
FRIDAY HARBOR  SUNNY     69  53  56 SW7       29.88S
EASTSOUND      SUNNY     72  55  56 S12       29.86S
PORT ANGELES   SUNNY     68  56  65 NW14G21   29.93R
PORT TOWNSEND  FAIR      72  57  60 NW8       29.91S
NAS WHIDBEY    MOSUNNY   64  55  72 SW14      29.95S
ARLINGTON      SUNNY     75  54  46 NW12      29.91S
BURLINGTON     SUNNY     72  55  56 S12G17    29.91S
$$

WAZ020-022-039-040-504-511-512-040200-
SOUTHWEST INTERIOR

CITY           SKY/WX    TMP DP  RH WIND       PRES   REMARKS
SHELTON        SUNNY     77  55  46 SW21G26   29.87R
OLYMPIA        SUNNY     77  55  46 SW12G20   29.90S
CHEHALIS       FAIR      77  61  57 VRB7G14   29.92S HAZE
KELSO          MOSUNNY   75  57  53 W7G16     29.95R
VANCOUVER      CLOUDY    80  55  42 N6        29.89S
SCAPPOOSE, OR  PTSUNNY   82  57  42 NW8       29.89S
PORTLAND, OR   CLOUDY    81  57  43 NW3       29.89S
$$

WAZ021-516-517-040200-
WASHINGTON COAST

CITY           SKY/WX    TMP DP  RH WIND       PRES   REMARKS
FORKS          MOSUNNY   66  59  78 W10       29.98S
HOQUIAM        CLOUDY    66  57  72 W15       29.97S
ASTORIA, OR    CLOUDY    68  57  68 NW14      29.98S
$$

WAZ019-023-024-040-518-519-040200-
CASCADE MOUNTAINS AND COLUMBIA GORGE

CITY           SKY/WX    TMP DP  RH WIND       PRES   REMARKS
TROUTDALE, OR  CLOUDY    81  54  39 CALM      29.87S
THE DALLES, OR PTSUNNY   86  50  28 NW14      29.79F
$$

WAZ026-027-041>044-520-521-040200-
EAST SLOPES

CITY           SKY/WX    TMP DP  RH WIND       PRES   REMARKS
OMAK           CLOUDY    87  43  21 S9        29.76F
WENATCHEE      CLOUDY    89  41  18 NW14      29.78F
ELLENSBURG     CLOUDY    85  41  21 NW15      29.85F
YAKIMA         CLOUDY    86  50  28 NW10      29.79F
$$

WAZ028-034-035-040200-
COLUMBIA BASIN

CITY           SKY/WX    TMP DP  RH WIND       PRES   REMARKS
EPHRATA        CLOUDY    89  46  22 W13       29.78R
MOSES LAKE     CLOUDY    85  50  29 SW13      29.79R
PASCO          CLOUDY    88  47  24 S8        29.77F
HERMISTON, OR  CLOUDY    85  46  25 S7        29.79F
$$

WAZ036>038-040200-
NORTHEAST WASHINGTON

CITY           SKY/WX    TMP DP  RH WIND       PRES   REMARKS
SPOKANE GEIGER CLOUDY    86  41  20 SW22      29.82S
SPOKANE FELTS  CLOUDY    88  42  20 SW10      29.80S
FAIRCHILD AFB  CLOUDY    84  42  22 SW17G25   29.83S
COEURDALENE,ID CLOUDY    88  41  19 SW10      29.80S
DEER PARK      CLOUDY    88  42  20 S14       29.80S
$$

WAZ029>033-040200-
SOUTHEAST WASHINGTON

CITY           SKY/WX    TMP DP  RH WIND       PRES   REMARKS
PULLMAN        CLOUDY    82  39  21 W18       29.90S
LEWISTON, ID   CLOUDY    89  39  17 W15G23    29.80R
WALLA WALLA    LGT RAIN  86  48  26 S8G20     29.83F
PENDLETON, OR  CLOUDY    84  45  25 N3        29.84F
$$


USA.gov is the U.S. government's official web portal to all federal, state and local government web resources and services.